Theta_e
307 305 305 306 307 306 309 316 318 318 321 324 324 324 323 321 321 322 327 329 331 331 331 331 328 326 326 327 327 329 326 326 324 326 327 322 318 317 316 317 318 320 320 321
307 306 304 305 306 306 308 311 315 313 319 324 324 325 323 322 322 321 323 328 329 331 330 331 330 327 326 326 327 327 326 325 325 324 325 322 317 315 315 318 320 321 321 321
308 306 305 305 306 307 307 310 310 313 313 323 324 326 325 323 323 322 322 322 324 328 330 330 330 329 327 327 326 326 325 323 325 323 324 323 321 320 319 319 320 320 321 320
308 306 307 306 307 307 307 308 309 313 314 325 323 325 325 324 322 322 322 321 324 326 329 330 330 330 329 328 327 326 326 324 324 324 323 323 322 319 316 314 316 319 320 320
307 307 307 308 306 306 307 308 310 309 313 322 325 326 322 323 323 322 321 322 321 323 325 329 331 330 328 328 327 327 326 326 325 324 322 322 323 321 317 315 318 319 319 319
307 306 307 307 307 307 310 313 314 316 316 323 323 324 322 322 322 322 322 321 321 322 323 326 327 329 327 328 328 327 326 327 326 325 324 323 323 323 321 318 318 318 319 318
308 307 307 308 308 308 309 312 313 315 323 326 324 326 323 321 319 321 321 322 321 322 323 325 327 329 328 327 327 328 327 327 327 326 325 323 323 323 322 321 319 318 319 318
309 310 308 307 309 309 310 311 315 326 324 325 321 326 323 320 320 321 321 322 321 322 323 324 326 329 329 327 325 326 327 328 328 327 326 325 325 324 323 323 322 321 320 319
312 306 307 308 307 309 314 312 312 317 313 322 323 323 321 320 318 313 318 321 321 322 324 324 327 329 329 329 327 325 325 327 328 327 327 327 326 325 324 323 323 323 323 322
308 313 307 308 309 313 314 313 315 317 318 321 321 323 322 309 306 306 305 312 320 321 322 324 326 328 329 330 330 328 326 326 327 328 327 328 327 326 326 326 324 324 324 325
305 312 311 310 312 317 317 316 319 320 320 322 323 318 304 304 304 304 304 307 311 319 321 323 325 327 328 329 330 330 328 327 326 327 328 329 328 328 328 328 327 325 326 326
309 311 313 311 306 306 312 317 319 318 319 316 315 308 303 303 303 303 305 307 309 312 317 321 323 324 326 328 329 329 329 327 324 325 328 329 329 329 329 330 328 327 327 328
310 311 313 313 312 308 311 313 317 317 316 317 320 311 307 304 304 305 306 308 310 311 314 316 319 322 323 325 327 328 329 328 328 328 329 328 325 328 329 327 325 329 329 329
309 310 312 317 315 313 313 312 313 317 321 319 321 309 312 312 307 305 305 307 308 309 310 312 316 319 322 324 325 326 327 328 328 329 330 330 330 328 330 330 328 330 330 329
309 310 310 310 311 312 313 313 312 314 315 320 318 316 314 313 314 306 305 306 305 306 307 308 309 311 315 321 323 325 326 327 328 328 329 329 330 330 331 331 331 331 332 330
308 310 309 309 309 311 312 313 311 311 311 312 313 314 311 310 310 307 304 304 304 305 305 306 306 307 309 310 311 316 322 325 326 327 328 329 329 330 330 331 331 331 329 325
308 309 309 310 307 309 310 307 312 313 312 313 316 313 308 311 306 302 303 304 303 304 305 306 306 306 306 307 309 310 311 311 314 320 324 326 327 328 329 328 327 325 326 324
308 308 304 307 308 312 309 303 306 306 302 302 306 307 307 307 303 300 302 302 303 304 307 307 306 306 307 307 307 308 309 310 311 311 313 314 316 318 319 321 323 322 322 319
307 308 306 306 305 309 307 303 303 306 301 298 300 301 301 303 306 301 301 302 302 302 303 304 304 304 305 306 307 307 307 308 309 310 313 313 315 316 319 320 319 318 318 319
305 303 302 298 306 307 306 302 301 302 303 298 300 300 300 303 303 301 301 301 302 303 304 305 305 306 306 306 305 306 306 307 307 308 309 312 314 315 316 317 318 319 320 320
294 294 305 305 301 305 304 300 301 306 305 299 301 301 301 300 300 301 301 302 302 303 303 305 306 306 307 306 305 305 305 306 306 306 306 308 310 314 316 317 318 318 317 316
300 294 305 295 294 305 302 302 304 303 302 302 302 302 302 301 301 300 300 300 301 304 305 304 304 305 306 306 306 306 305 305 305 306 306 306 307 309 313 315 315 315 315 313
294 299 296 299 302 301 302 302 302 302 303 303 303 303 303 303 302 301 301 300 300 301 303 303 304 303 304 305 306 306 306 305 305 305 305 306 306 306 308 310 312 312 311 310
297 298 297 294 294 302 299 300 302 302 301 301 301 302 302 303 302 301 300 300 300 301 302 303 304 303 303 304 304 305 305 305 305 304 304 304 305 305 306 307 309 310 310 309
294 294 291 294 294 298 300 300 298 299 299 299 300 301 302 301 300 300 300 300 301 301 301 303 303 303 302 303 303 304 304 304 304 304 303 302 304 305 304 304 309 308 308 307
293 292 294 293 297 298 299 299 298 298 298 299 299 300 300 300 300 299 299 299 300 301 301 302 302 302 301 301 301 302 302 302 302 302 301 302 303 303 303 303 305 305 304 304
Wind_Speed
9 6 16 24 19 17 14 10 15 12 15 15 26 19 17 12 8 14 20 23 34 40 41 42 42 42 43 41 40 39 38 37 35 35 33 31 31 29 29 29 26 24 22 19
6 19 23 15 13 14 17 23 19 14 21 17 16 22 26 17 10 14 22 25 31 39 33 39 45 44 45 45 42 41 40 40 38 38 36 33 32 31 30 30 29 27 25 22
17 10 16 15 13 14 19 20 27 15 22 12 5 14 17 21 26 23 22 28 31 36 39 40 44 48 47 48 46 44 43 42 40 40 38 36 33 32 32 34 33 30 28 25
12 16 12 18 21 17 18 18 23 19 11 17 15 10 18 20 21 22 29 29 31 34 37 42 46 49 52 52 48 46 43 44 43 43 42 42 40 39 38 37 34 32 29 27
9 9 24 16 23 20 18 17 20 24 21 14 14 9 5 17 20 26 23 33 32 38 37 42 47 47 51 53 51 49 46 44 45 45 45 45 42 40 38 37 35 33 31 30
12 6 14 21 10 17 4 9 11 11 15 10 8 12 6 11 19 22 26 30 36 40 42 42 42 46 49 53 52 49 50 48 46 47 46 47 45 43 41 39 38 35 34 32
8 18 3 5 9 6 14 7 4 8 9 4 16 10 10 1 10 19 18 30 40 45 43 44 42 46 49 52 55 53 52 51 49 49 48 48 47 46 43 41 39 36 36 35
9 5 18 8 18 13 18 18 9 9 5 4 8 9 5 11 19 18 12 26 35 43 48 47 46 47 49 50 52 56 55 53 52 50 50 49 48 48 46 43 40 38 36 33
6 7 5 9 13 15 11 15 20 6 2 4 4 2 7 2 3 8 13 21 27 39 42 47 44 46 48 48 51 53 56 54 54 52 50 50 49 50 48 44 41 40 37 34
4 3 2 9 9 15 11 8 7 8 3 2 3 1 3 10 10 8 8 11 27 30 40 46 45 46 47 48 47 48 51 54 53 53 51 51 51 50 48 45 43 41 38 36
2 3 1 4 4 4 5 8 10 1 1 3 4 2 0 7 7 8 9 15 14 21 36 43 47 47 47 47 48 48 50 52 51 53 53 51 51 50 47 43 42 42 38 35
2 2 3 2 3 2 4 3 6 2 3 2 2 0 4 5 6 6 10 12 10 3 16 30 34 39 43 43 45 47 47 49 49 49 50 51 50 46 44 43 42 42 38 34
6 4 0 1 3 3 2 1 3 3 2 4 3 3 4 5 7 14 12 16 17 15 10 6 22 25 30 35 37 42 44 45 47 49 49 45 39 44 48 43 46 41 38 37
9 2 3 2 2 1 3 3 1 2 2 4 2 7 2 8 11 12 22 19 19 21 19 16 10 4 16 22 29 33 36 38 41 45 46 46 48 48 48 46 44 41 39 41
6 5 4 5 5 2 3 2 3 3 2 2 6 4 2 6 8 10 18 24 27 28 25 19 15 11 7 1 11 20 25 28 34 37 40 42 43 43 42 42 41 40 42 45
7 4 5 6 8 7 7 9 3 2 2 2 7 3 4 5 8 16 20 22 25 26 25 23 20 15 11 6 1 3 8 16 22 27 32 35 37 38 38 38 37 39 41 32
7 5 4 3 5 4 5 8 6 4 6 2 3 3 5 5 10 14 17 20 21 20 21 21 20 19 18 13 7 2 5 10 14 18 21 24 29 32 35 35 32 29 32 33
4 4 2 2 4 4 2 1 2 9 7 9 7 6 2 3 10 20 19 17 16 16 16 18 18 16 14 12 9 5 4 4 8 12 17 20 24 26 26 27 29 30 27 27
3 2 3 2 2 2 5 5 4 1 5 5 5 7 6 2 5 11 19 17 16 15 14 13 13 16 13 13 11 9 8 6 8 9 13 16 20 21 22 25 26 28 28 28
4 4 3 3 4 2 2 5 8 3 5 6 8 7 8 4 4 3 16 17 17 17 17 19 18 14 15 15 14 12 10 11 11 10 11 14 16 17 19 23 23 25 26 26
5 4 4 4 2 2 4 11 9 4 1 5 8 10 14 5 3 9 13 15 17 20 20 20 19 19 21 20 19 17 14 12 11 10 13 14 14 14 16 18 19 19 19 22
2 2 2 3 4 2 10 4 5 2 2 5 9 10 10 9 10 13 15 18 19 20 21 22 22 22 21 20 19 19 18 16 18 19 15 17 17 17 20 21 22 22 26 25
2 3 2 3 3 2 5 4 5 6 5 6 7 8 8 9 11 12 15 17 18 19 19 20 22 22 23 23 23 21 18 19 18 20 22 18 17 20 24 25 26 27 27 27
3 1 2 4 3 1 11 6 6 8 9 10 9 9 8 8 9 11 14 17 18 18 19 20 22 23 23 23 23 23 24 23 22 21 20 21 19 21 24 24 23 27 29 30
3 2 2 4 5 2 9 10 14 8 7 9 8 9 8 7 8 11 14 16 17 17 16 17 19 21 22 23 23 24 25 25 24 22 22 20 21 24 24 27 28 28 27 26
7 5 4 4 2 1 1 4 11 7 7 5 6 5 5 8 10 11 14 15 16 16 14 14 15 16 18 21 23 23 24 25 25 23 20 21 21 24 25 26 29 28 25 24
Wind_Direction
195 203 217 215 213 261 269 246 258 283 224 201 224 224 229 222 233 228 232 215 218 220 224 216 218 215 212 214 215 215 214 209 206 204 205 207 210 209 209 210 211 214 219 225
193 228 224 226 220 226 248 247 259 305 258 197 215 225 231 220 225 221 234 221 226 229 219 218 217 215 215 214 216 217 216 212 210 211 212 214 212 214 214 213 214 217 222 227
208 227 215 224 225 222 234 237 241 259 297 216 180 237 230 230 230 236 246 251 246 234 224 219 218 217 215 215 217 217 218 216 214 215 215 218 218 220 218 216 219 220 224 226
233 232 238 210 218 209 242 231 230 249 271 214 192 243 219 221 226 236 236 239 238 236 234 229 220 217 219 219 217 217 217 218 217 218 217 219 219 218 221 220 220 222 225 226
216 195 206 226 218 195 241 220 208 233 258 258 192 226 236 190 218 234 233 231 231 236 237 231 226 226 226 220 218 217 218 220 219 220 220 221 223 226 229 226 225 226 228 227
238 221 200 213 215 209 288 221 209 253 253 225 184 203 215 210 206 229 229 220 226 230 236 237 236 231 226 220 219 219 218 221 222 223 223 224 226 226 230 230 229 229 231 231
199 227 190 162 197 198 216 181 235 251 220 186 168 192 234 183 201 216 216 212 220 227 230 234 232 225 222 219 220 219 220 222 223 225 225 227 229 231 233 234 235 232 233 234
208 204 198 186 210 208 208 198 198 221 175 127 154 226 232 220 235 244 229 224 218 221 223 230 230 226 223 222 222 221 221 223 224 227 227 229 231 233 235 237 239 240 240 243
216 233 161 185 201 220 162 199 218 286 275 107 185 249 299 191 325 351 286 235 221 221 218 224 224 225 224 223 223 225 224 223 226 229 229 230 232 235 236 237 240 242 245 246
273 247 157 198 217 213 189 123 194 238 138 176 61 95 290 348 330 326 324 296 244 232 223 226 227 226 227 227 228 228 228 228 228 231 232 234 235 236 239 241 241 243 244 246
276 259 335 244 23 127 136 186 220 73 96 138 136 149 284 295 306 306 313 317 280 238 223 227 229 230 229 227 227 228 228 228 230 233 235 236 238 239 240 244 246 245 244 245
15 355 49 57 105 356 343 211 223 173 202 11 125 167 15 332 331 346 343 10 34 63 231 222 224 232 229 227 229 230 230 230 232 235 236 238 241 243 247 247 248 245 241 242
344 11 45 165 137 104 157 210 345 87 84 196 125 155 357 8 21 22 15 37 48 52 45 240 227 219 217 224 230 234 234 234 234 232 235 234 241 244 245 242 249 244 242 242
344 66 352 51 64 89 161 153 0 97 138 127 79 151 348 28 25 9 28 37 50 51 49 49 54 204 219 223 227 233 238 239 239 237 235 237 236 241 241 242 249 246 243 241
10 360 5 26 23 24 59 98 128 63 82 170 141 140 334 26 20 3 36 45 45 49 47 48 43 49 62 107 235 230 231 236 239 241 241 243 246 245 245 244 245 245 243 241
349 352 353 5 9 25 47 29 94 37 73 64 107 93 341 313 39 36 28 32 34 32 33 34 36 40 48 60 57 236 232 233 235 238 242 245 247 247 248 247 247 245 241 234
345 334 8 345 346 351 34 355 357 75 33 349 76 86 38 58 62 36 18 22 20 20 15 14 11 15 20 23 8 14 258 247 245 243 241 240 242 241 240 239 238 231 232 245
334 345 25 335 344 47 304 77 54 79 36 9 27 16 73 87 94 41 29 26 19 9 0 353 353 353 352 358 354 329 293 290 277 255 249 248 247 248 250 250 245 238 238 251
344 0 353 63 35 51 358 11 4 19 33 9 18 1 352 260 150 40 20 22 15 10 8 0 350 339 333 325 319 315 304 282 262 259 254 247 246 242 239 236 238 243 238 232
342 43 101 20 76 89 323 319 325 282 42 6 31 8 352 97 69 14 13 17 22 23 15 8 7 359 339 329 313 305 299 288 281 280 271 253 246 243 243 242 241 239 235 233
337 359 45 18 72 341 298 306 317 59 335 15 36 33 34 52 39 350 7 15 16 13 15 18 13 5 356 348 339 330 311 291 277 267 268 261 255 249 243 241 238 241 240 234
328 57 10 39 58 0 348 353 67 289 39 41 29 28 37 36 27 16 13 11 10 10 11 12 11 7 2 353 345 335 324 303 285 269 254 253 255 243 238 235 235 231 238 238
358 170 221 170 219 335 346 30 28 33 31 16 1 2 359 4 2 5 4 3 3 5 6 7 7 7 3 357 348 338 325 311 295 277 267 249 246 242 234 233 230 231 234 236
251 96 192 34 298 276 332 352 41 31 49 29 12 353 337 339 350 358 359 0 1 1 2 6 5 4 5 6 3 351 335 321 308 292 273 267 251 236 231 231 232 235 232 231
230 22 189 267 282 92 91 81 22 15 1 353 3 9 17 8 354 348 349 351 352 357 0 1 3 4 4 359 356 353 348 335 317 303 285 261 249 238 240 233 235 235 234 233
193 192 158 220 209 124 252 323 336 355 1 0 341 325 306 320 319 324 330 331 334 343 348 352 356 356 356 356 357 355 347 340 332 311 290 267 245 239 233 227 228 219 223 226